Surface/Precipitation History
02/08/2018 18:10  to  2/9/2018 18:10
Change End Date:
To complete the export process:
1) Select all of the data below
2) Copy the data to the clipboard
3) Open a word processor such as Notepad
4) Paste the data into the word processor
5) Save the file

Date/Time (MST), SfStatus, SfTemp, PvtTemp, SubTemp, FreezeTemp, ChemFactor, ChemPercent, WaterDepth, WaterDepthIceThickness, IcePercent, Conductivity, Salinity, FrictionIndex, PrecipType, PrecipIntensity, Accumulation, PrecipRate
02/09/2018 18:06, Dry, 14, , 25, , , , , , , 0, 0, , None, None, ,  
02/09/2018 18:05, Dry, 14, , 25, , , , , , , 0, 0, , None, None, ,  
02/09/2018 17:56, Dry, 14.5, , 25, , , , , , , 0, 0, , None, None, ,  
02/09/2018 17:50, Dry, 15.1, , 25, , , , , , , 0, 0, , None, None, ,  
02/09/2018 17:46, Dry, 15.4, , 25, , , , , , , 0, 0, , None, None, ,  
02/09/2018 17:36, Dry, 16.9, , 25, , , , , , , 0, 0, , None, None, ,  
02/09/2018 17:35, Dry, 16.9, , 25, , , , , , , 0, 0, , None, None, ,  
02/09/2018 17:26, Dry, 18.1, , 25, , , , , , , 0, 0, , None, None, ,  
02/09/2018 17:20, Dry, 18.9, , 25, , , , , , , 0, 0, , None, None, ,  
02/09/2018 17:15, Dry, 19.8, , 25, , , , , , , 0, 0, , None, None, ,  
02/09/2018 17:05, Dry, 21.6, , 25, , , , , , , 0, 0, , None, None, ,  
02/09/2018 17:05, Dry, 21.6, , 25, , , , , , , 0, 0, , None, None, ,  
02/09/2018 16:55, Dry, 23.5, , 25, , , , , , , 0, 0, , None, None, ,  
02/09/2018 16:50, Dry, 24.4, , 25, , , , , , , 0, 0, , None, None, ,  
02/09/2018 16:45, Dry, 25.3, , 25, , , , , , , 0, 0, , None, None, ,  
02/09/2018 16:35, Dry, 26.8, , 25, , , , , , , 0, 0, , None, None, ,  
02/09/2018 16:35, Dry, 26.8, , 25, , , , , , , 0, 0, , None, None, ,  
02/09/2018 16:25, Dry, 27.9, , 25, , , , , , , 0, 0, , None, None, ,  
02/09/2018 16:20, Dry, 27.7, , 25, , , , , , , 0, 0, , None, None, ,  
02/09/2018 16:15, Dry, 28.6, , 25, , , , , , , 0, 0, , None, None, ,  
02/09/2018 16:06, Dry, 29.3, , 25, , , , , , , 0, 0, , None, None, ,  
02/09/2018 16:05, Dry, 29.3, , 25, , , , , , , 0, 0, , None, None, ,  
02/09/2018 15:55, Dry, 30.6, , 25, , , , , , , 0, 0, , None, None, ,  
02/09/2018 15:51, Dry, 31.3, , 25, , , , , , , 0, 0, , None, None, ,  
02/09/2018 15:45, Dry, 30.6, , 25, , , , , , , 0, 0, , None, None, ,  
02/09/2018 15:35, Dry, 29.7, , 25, , , , , , , 0, 0, , None, None, ,  
02/09/2018 15:35, Dry, 29.7, , 25, , , , , , , 0, 0, , None, None, ,  
02/09/2018 15:25, Dry, 30.4, , 25, , , , , , , 0, 0, , None, None, ,  
02/09/2018 15:20, Dry, 30.2, , 24, , , , , , , 0, 0, , None, None, ,  
02/09/2018 15:15, Dry, 31.5, , 24, , , , , , , 0, 0, , None, None, ,  
02/09/2018 15:05, Dry, 34, , 24, , , , , , , 0, 0, , None, None, ,  
02/09/2018 15:05, Dry, 34, , 24, , , , , , , 0, 0, , None, None, ,  
02/09/2018 14:55, Dry, 36.7, , 24, , , , , , , 0, 0, , None, None, ,  
02/09/2018 14:50, Dry, 38.7, , 24, , , , , , , 0, 0, , None, None, ,  
02/09/2018 14:45, Dry, 39.6, , 24, , , , , , , 0, 0, , None, None, ,  
02/09/2018 14:35, Dry, 40.3, , 24, , , , , , , 0, 1, , None, None, ,  
02/09/2018 14:35, Dry, 40.3, , 24, , , , , , , 0, 1, , None, None, ,  
02/09/2018 14:25, Dry, 42.8, , 24, , , , , , , 0, 3, , None, None, ,  
02/09/2018 14:20, Dry, 43, , 24, , , , , , , 0, 4, , None, None, ,  
02/09/2018 14:14, Dry, 42.6, , 24, , , , , , , 0, 5, , None, None, ,  
02/09/2018 14:05, Dry, 42.4, , 24, , , , , , , 0, 5, , None, None, ,  
02/09/2018 14:04, Dry, 42.4, , 24, , , , , , , 0, 5, , None, None, ,  
02/09/2018 13:54, Dry, 41.4, , 24, , , , , , , 0, 7, , None, None, ,  
02/09/2018 13:50, Dry, 39.6, , 24, , , , , , , 0, 8, , None, None, ,  
02/09/2018 13:44, Dry, 39.9, , 24, , , , , , , 0, 9, , None, None, ,  
02/09/2018 13:35, Dry, 41, , 24, , , , , , , 0, 12, , None, None, ,  
02/09/2018 13:34, Dry, 41.2, , 24, , , , , , , 0, 13, , None, None, ,  
02/09/2018 13:24, Dry, 41.2, , 24, , , , , , , 0, 27, , None, None, ,  
02/09/2018 13:20, Dry, 41.5, , 24, , , , , , , 0, 34, , None, None, ,  
02/09/2018 13:14, Dry, 39.9, , 24, , , , , , , 0, 45, , None, None, ,  
02/09/2018 13:05, Dry, 40.6, , 24, , , , , , , 1, 54, , None, None, ,  
02/09/2018 13:04, Dry, 40.5, , 24, , , , , , , 1, 55, , None, None, ,  
02/09/2018 12:54, Dry, 38.7, , 24, , , , , , , 1, 63, , None, None, ,  
02/09/2018 12:50, Dry, 38.5, , 24, , , , , , , 1, 64, , None, None, ,  
02/09/2018 12:44, Dry, 38.5, , 24, , , , , , , 1, 75, , None, None, ,  
02/09/2018 12:35, Dry, 37.4, , 24, , , , , , , 1, 80, , None, None, ,  
02/09/2018 12:34, Dry, 37.4, , 24, , , , , , , 1, 79, , None, None, ,  
02/09/2018 12:24, Dry, 38.3, , 24, , , , , , , 1, 90, , None, None, ,  
02/09/2018 12:20, Dry, 38.7, , 24, , , , , , , 1, 91, , None, None, ,  
02/09/2018 12:14, Dry, 37.8, , 24, , , , , , , 1, 99, , None, None, ,  
02/09/2018 12:05, Dry, 36.7, , 24, , , , , , , 1, 119, , None, None, ,  
02/09/2018 12:04, Dry, 36.5, , 24, , , , , , , 1, 76, , None, None, ,  
02/09/2018 11:54, Dry, 35.4, , 24, , , , , , , 0, 15, , None, None, ,  
02/09/2018 11:50, Dry, 35.4, , 24, , , , , , , 0, 16, , None, None, ,  
02/09/2018 11:44, Dry, 34.9, , 24, , , , , , , 0, 13, , Yes, , ,  
02/09/2018 11:35, Dry, 33.6, , 24, , , , , , , 0, 16, , None, None, ,  
02/09/2018 11:34, Dry, 33.6, , 24, , , , , , , 0, 16, , None, None, ,  
02/09/2018 11:24, Dry, 31.6, , 24, , , , , , , 0, 14, , Yes, , ,  
02/09/2018 11:20, Dry, 30.7, , 24, , , , , , , 0, 14, , None, None, ,  
02/09/2018 11:13, Dry, 29.8, , 24, , , , , , , 0, 15, , None, None, ,  
02/09/2018 11:05, Dry, 27.3, , 24, , , , , , , 0, 19, , Yes, , ,  
02/09/2018 11:03, Dry, 26.8, , 24, , , , , , , 0, 20, , Yes, , ,  
02/09/2018 10:53, Dry, 23.7, , 24, , , , , , , 0, 24, , Yes, , ,  
02/09/2018 10:50, Dry, 23, , 24, , , , , , , 0, 25, , Yes, , ,  
02/09/2018 10:43, Dry, 23.7, , 24, , , , , , , 0, 25, , Yes, , ,  
02/09/2018 10:35, Dry, 22.5, , 24, , , , , , , 0, 27, , Yes, , ,  
02/09/2018 10:33, Dry, 22.3, , 24, , , , , , , 0, 27, , Yes, , ,  
02/09/2018 10:23, Dry, 21.2, , 24, , , , , , , 0, 28, , Yes, , ,  
02/09/2018 10:20, Dry, 20.8, , 24, , , , , , , 0, 29, , Yes, , ,  
02/09/2018 10:13, Dry, 20.1, , 24, , , , , , , 0, 30, , Yes, , ,  
02/09/2018 10:05, Dry, 19.2, , 24, , , , , , , 0, 27, , Yes, , ,  
02/09/2018 10:03, Dry, 19, , 24, , , , , , , 0, 27, , None, None, ,  
02/09/2018 09:53, Dry, 17.6, , 24, , , , , , , 0, 28, , None, None, ,  
02/09/2018 09:50, Dry, 17.2, , 24, , , , , , , 0, 28, , None, None, ,  
02/09/2018 09:43, Dry, 17.1, , 24, , , , , , , 0, 28, , None, None, ,  
02/09/2018 09:35, Dry, 16.2, , 24, , , , , , , 0, 31, , None, None, ,  
02/09/2018 09:33, Dry, 16.2, , 24, , , , , , , 0, 30, , None, None, ,  
02/09/2018 09:23, Dry, 14.9, , 24, , , , , , , 0, 31, , None, None, ,  
02/09/2018 09:20, Dry, 14.7, , 24, , , , , , , 0, 31, , None, None, ,  
02/09/2018 09:13, Dry, 14, , 24, , , , , , , 0, 32, , None, None, ,  
02/09/2018 09:05, Dry, 13.3, , 24, , , , , , , 0, 31, , None, None, ,  
02/09/2018 09:03, Dry, 12.9, , 24, , , , , , , 0, 31, , None, None, ,  
02/09/2018 08:53, Dry, 11.3, , 24, , , , , , , 0, 34, , None, None, ,  
02/09/2018 08:50, Dry, 11.3, , 24, , , , , , , 0, 34, , None, None, ,  
02/09/2018 08:43, Dry, 10.4, , 24, , , , , , , 0, 34, , None, None, ,  
02/09/2018 08:35, Dry, 10, , 24, , , , , , , 0, 33, , Yes, , ,  
02/09/2018 08:32, Dry, 9.5, , 24, , , , , , , 0, 33, , Yes, , ,  
02/09/2018 08:22, Dry, 8.6, , 24, , , , , , , 0, 33, , None, None, ,  
02/09/2018 08:20, Dry, 8.6, , 24, , , , , , , 0, 33, , None, None, ,  
02/09/2018 08:12, Dry, 8.4, , 24, , , , , , , 0, 33, , None, None, ,  
02/09/2018 08:04, Dry, 8.2, , 24, , , , , , , 0, 33, , None, None, ,  
02/09/2018 08:02, Dry, 8.4, , 24, , , , , , , 0, 33, , None, None, ,  
02/09/2018 07:52, Dry, 8.8, , 24, , , , , , , 0, 34, , Yes, , ,  
02/09/2018 07:49, Dry, 8.8, , 24, , , , , , , 0, 34, , None, None, ,  
02/09/2018 07:42, Dry, 9, , 24, , , , , , , 0, 34, , Yes, , ,  
02/09/2018 07:34, Dry, 9, , 24, , , , , , , 0, 34, , Yes, , ,  
02/09/2018 07:32, Dry, 9, , 24, , , , , , , 0, 35, , None, None, ,  
02/09/2018 07:22, Dry, 9.3, , 24, , , , , , , 0, 35, , Yes, , ,  
02/09/2018 07:20, Dry, 9.3, , 24, , , , , , , 0, 35, , Yes, , ,  
02/09/2018 07:12, Dry, 9.3, , 24, , , , , , , 0, 35, , None, None, ,  
02/09/2018 07:05, Dry, 9.3, , 24, , , , , , , 0, 35, , None, None, ,  
02/09/2018 07:02, Dry, 9.5, , 24, , , , , , , 0, 35, , None, None, ,  
02/09/2018 06:52, Dry, 9.3, , 24, , , , , , , 0, 35, , None, None, ,  
02/09/2018 06:50, Dry, 9.3, , 24, , , , , , , 0, 35, , None, None, ,  
02/09/2018 06:42, Dry, 9.3, , 24, , , , , , , 0, 35, , None, None, ,  
02/09/2018 06:36, Dry, 9.3, , 24, , , , , , , 0, 35, , None, None, ,  
02/09/2018 06:32, Dry, 9.5, , 24, , , , , , , 0, 35, , None, None, ,  
02/09/2018 06:22, Dry, 9.7, , 24, , , , , , , 0, 35, , None, None, ,  
02/09/2018 06:21, Dry, 9.7, , 24, , , , , , , 0, 35, , None, None, ,  
02/09/2018 06:12, Dry, 9.7, , 24, , , , , , , 0, 35, , None, None, ,  
02/09/2018 06:06, Dry, 9.7, , 24, , , , , , , 0, 35, , Yes, , ,  
02/09/2018 06:02, Dry, 9.9, , 24, , , , , , , 0, 36, , None, None, ,  
02/09/2018 05:52, Dry, 9.9, , 24, , , , , , , 0, 36, , Yes, , ,  
02/09/2018 05:51, Dry, 10, , 24, , , , , , , 0, 36, , Yes, , ,  
02/09/2018 05:42, Dry, 9.7, , 24, , , , , , , 0, 35, , Yes, , ,  
02/09/2018 05:36, Dry, 9.3, , 24, , , , , , , 0, 35, , Yes, , ,  
02/09/2018 05:32, Dry, 9.5, , 24, , , , , , , 0, 36, , Yes, , ,  
02/09/2018 05:22, Dry, 9.5, , 24, , , , , , , 0, 36, , Yes, , ,  
02/09/2018 05:21, Dry, 9.5, , 24, , , , , , , 0, 35, , Yes, , ,  
02/09/2018 05:12, Dry, 9.3, , 24, , , , , , , 0, 35, , Yes, , ,  
02/09/2018 05:06, Dry, 9.1, , 24, , , , , , , 0, 35, , Yes, , ,  
02/09/2018 05:02, Dry, 9.1, , 24, , , , , , , 0, 35, , Yes, , ,  
02/09/2018 04:52, Dry, 9.3, , 25, , , , , , , 0, 35, , None, None, ,  
02/09/2018 04:51, Dry, 9.3, , 25, , , , , , , 0, 35, , None, None, ,  
02/09/2018 04:42, Dry, 9.3, , 25, , , , , , , 0, 35, , Yes, , ,  
02/09/2018 04:36, Dry, 9.3, , 25, , , , , , , 0, 35, , Yes, , ,  
02/09/2018 04:31, Dry, 9.5, , 25, , , , , , , 0, 35, , None, None, ,  
02/09/2018 04:21, Dry, 9.5, , 25, , , , , , , 0, 35, , Yes, , ,  
02/09/2018 04:21, Dry, 9.5, , 25, , , , , , , 0, 35, , Yes, , ,  
02/09/2018 04:11, Dry, 9.3, , 25, , , , , , , 0, 35, , Yes, , ,  
02/09/2018 04:06, Dry, 9.3, , 25, , , , , , , 0, 35, , Yes, , ,  
02/09/2018 04:01, Dry, 9.3, , 25, , , , , , , 0, 35, , Yes, , ,  
02/09/2018 03:51, Dry, 9.3, , 25, , , , , , , 0, 35, , Yes, , ,  
02/09/2018 03:51, Dry, 9.3, , 25, , , , , , , 0, 35, , Yes, , ,  
02/09/2018 03:41, Dry, 9.1, , 25, , , , , , , 0, 35, , Yes, , ,  
02/09/2018 03:36, Dry, 8.8, , 25, , , , , , , 0, 34, , Yes, , ,  
02/09/2018 03:31, Dry, 8.8, , 25, , , , , , , 0, 34, , None, None, ,  
02/09/2018 03:21, Dry, 8.4, , 25, , , , , , , 0, 34, , Yes, , ,  
02/09/2018 03:21, Dry, 8.4, , 25, , , , , , , 0, 34, , Yes, , ,  
02/09/2018 03:11, Dry, 8.2, , 25, , , , , , , 0, 33, , Yes, , ,  
02/09/2018 03:06, Dry, 8.1, , 25, , , , , , , 0, 33, , Yes, , ,  
02/09/2018 03:01, Dry, 8.2, , 25, , , , , , , 0, 33, , None, None, ,  
02/09/2018 02:51, Dry, 8.6, , 25, , , , , , , 0, 34, , Yes, , ,  
02/09/2018 02:51, Dry, 8.6, , 25, , , , , , , 0, 34, , Yes, , ,  
02/09/2018 02:41, Dry, 9, , 25, , , , , , , 0, 34, , Yes, , ,  
02/09/2018 02:36, Dry, 9.1, , 25, , , , , , , 0, 34, , Yes, , ,  
02/09/2018 02:31, Dry, 9, , 25, , , , , , , 0, 34, , Yes, , ,  
02/09/2018 02:21, Dry, 8.8, , 25, , , , , , , 0, 34, , Yes, , ,  
02/09/2018 02:21, Dry, 8.8, , 25, , , , , , , 0, 34, , Yes, , ,  
02/09/2018 02:11, Dry, 9, , 25, , , , , , , 0, 34, , Yes, , ,  
02/09/2018 02:05, Dry, 9, , 25, , , , , , , 0, 33, , Yes, , ,  
02/09/2018 02:01, Dry, 8.8, , 25, , , , , , , 0, 33, , Yes, , ,  
02/09/2018 01:51, Dry, 8.8, , 25, , , , , , , 0, 33, , None, None, ,  
02/09/2018 01:51, Dry, 8.8, , 25, , , , , , , 0, 33, , None, None, ,  
02/09/2018 01:40, Dry, 8.8, , 25, , , , , , , 0, 33, , None, None, ,  
02/09/2018 01:36, Dry, 8.8, , 26, , , , , , , 0, 33, , None, None, ,  
02/09/2018 01:30, Dry, 8.8, , 26, , , , , , , 0, 33, , None, None, ,  
02/09/2018 01:21, Dry, 8.6, , 26, , , , , , , 0, 33, , None, None, ,  
02/09/2018 01:20, Dry, 8.6, , 26, , , , , , , 0, 33, , None, None, ,  
02/09/2018 01:10, Dry, 8.2, , 26, , , , , , , 0, 33, , None, None, ,  
02/09/2018 01:06, Dry, 8.2, , 26, , , , , , , 0, 33, , None, None, ,  
02/09/2018 01:00, Dry, 8.4, , 26, , , , , , , 0, 33, , None, None, ,  
02/09/2018 00:51, Dry, 8.4, , 26, , , , , , , 0, 33, , None, None, ,  
02/09/2018 00:50, Dry, 8.4, , 26, , , , , , , 0, 33, , None, None, ,  
02/09/2018 00:40, Dry, 8.6, , 26, , , , , , , 0, 33, , None, None, ,  
02/09/2018 00:36, Dry, 8.8, , 26, , , , , , , 0, 33, , None, None, ,  
02/09/2018 00:30, Dry, 9, , 26, , , , , , , 0, 33, , Yes, , ,  
02/09/2018 00:21, Dry, 9.3, , 26, , , , , , , 0, 33, , Yes, , ,  
02/09/2018 00:20, Dry, 9.3, , 26, , , , , , , 0, 33, , Yes, , ,  
02/09/2018 00:10, Dry, 8.8, , 26, , , , , , , 0, 33, , Yes, , ,  
02/09/2018 00:06, Dry, 9, , 26, , , , , , , 0, 33, , None, None, ,  
02/09/2018 00:00, Dry, 9.3, , 26, , , , , , , 0, 33, , None, None, ,  
02/08/2018 23:51, Dry, 9.9, , 26, , , , , , , 0, 34, , Yes, , ,  
02/08/2018 23:50, Dry, 9.9, , 26, , , , , , , 0, 34, , Yes, , ,  
02/08/2018 23:40, Dry, 9.9, , 26, , , , , , , 0, 34, , Yes, , ,  
02/08/2018 23:36, Dry, 9.9, , 26, , , , , , , 0, 34, , Yes, , ,  
02/08/2018 23:30, Dry, 10, , 26, , , , , , , 0, 34, , Yes, , ,  
02/08/2018 23:21, Dry, 10.2, , 26, , , , , , , 0, 34, , Yes, , ,  
02/08/2018 23:20, Dry, 10.2, , 26, , , , , , , 0, 34, , Yes, , ,  
02/08/2018 23:10, Dry, 10.2, , 26, , , , , , , 0, 34, , Yes, , ,  
02/08/2018 23:06, Dry, 10.4, , 26, , , , , , , 0, 34, , Yes, , ,  
02/08/2018 23:00, Dry, 10.4, , 26, , , , , , , 0, 34, , Yes, , ,  
02/08/2018 22:51, Dry, 10.2, , 26, , , , , , , 0, 34, , None, None, ,  
02/08/2018 22:50, Dry, 10.4, , 26, , , , , , , 0, 34, , None, None, ,  
02/08/2018 22:39, Dry, 10.4, , 26, , , , , , , 0, 33, , None, None, ,  
02/08/2018 22:36, Dry, 10.6, , 26, , , , , , , 0, 34, , None, None, ,  
02/08/2018 22:29, Dry, 10.9, , 26, , , , , , , 0, 34, , None, None, ,  
02/08/2018 22:21, Dry, 10.9, , 26, , , , , , , 0, 34, , None, None, ,  
02/08/2018 22:19, Dry, 10.9, , 26, , , , , , , 0, 34, , None, None, ,  
02/08/2018 22:09, Dry, 10.9, , 27, , , , , , , 0, 34, , None, None, ,  
02/08/2018 22:06, Dry, 10.8, , 27, , , , , , , 0, 34, , None, None, ,  
02/08/2018 21:59, Dry, 10.9, , 27, , , , , , , 0, 34, , None, None, ,  
02/08/2018 21:51, Dry, 10.6, , 27, , , , , , , 0, 34, , None, None, ,  
02/08/2018 21:49, Dry, 10.6, , 27, , , , , , , 0, 34, , None, None, ,  
02/08/2018 21:39, Dry, 10.2, , 27, , , , , , , 0, 33, , None, None, ,  
02/08/2018 21:36, Dry, 10.2, , 27, , , , , , , 0, 33, , None, None, ,  
02/08/2018 21:29, Dry, 10.2, , 27, , , , , , , 0, 34, , None, None, ,  
02/08/2018 21:21, Dry, 10.2, , 27, , , , , , , 0, 33, , Yes, , ,  
02/08/2018 21:19, Dry, 10.2, , 27, , , , , , , 0, 33, , Yes, , ,  
02/08/2018 21:09, Dry, 10.2, , 27, , , , , , , 0, 34, , Yes, , ,  
02/08/2018 21:06, Dry, 10.4, , 27, , , , , , , 0, 33, , Yes, , ,  
02/08/2018 20:59, Dry, 10.6, , 27, , , , , , , 0, 33, , Yes, , ,  
02/08/2018 20:51, Dry, 10.6, , 27, , , , , , , 0, 33, , None, None, ,  
02/08/2018 20:49, Dry, 10.8, , 27, , , , , , , 0, 33, , None, None, ,  
02/08/2018 20:39, Dry, 10.2, , 27, , , , , , , 0, 32, , None, None, ,  
02/08/2018 20:36, Dry, 10.2, , 27, , , , , , , 0, 32, , None, None, ,  
02/08/2018 20:29, Dry, 10.2, , 27, , , , , , , 0, 32, , None, None, ,  
02/08/2018 20:21, Dry, 10.2, , 27, , , , , , , 0, 31, , None, None, ,  
02/08/2018 20:19, Dry, 10.2, , 27, , , , , , , 0, 31, , None, None, ,  
02/08/2018 20:09, Dry, 10.2, , 27, , , , , , , 0, 30, , None, None, ,  
02/08/2018 20:06, Dry, 10.2, , 27, , , , , , , 0, 30, , Yes, , ,  
02/08/2018 19:59, Dry, 10.4, , 27, , , , , , , 0, 30, , Yes, , ,  
02/08/2018 19:51, Dry, 10.4, , 27, , , , , , , 0, 30, , None, None, ,  
02/08/2018 19:49, Dry, 10.4, , 27, , , , , , , 0, 30, , None, None, ,  
02/08/2018 19:38, Dry, 10.4, , 28, , , , , , , 0, 30, , None, None, ,  
02/08/2018 19:36, Dry, 10.4, , 28, , , , , , , 0, 30, , None, None, ,  
02/08/2018 19:28, Dry, 10.8, , 28, , , , , , , 0, 30, , None, None, ,  
02/08/2018 19:20, Dry, 10.9, , 28, , , , , , , 0, 30, , None, None, ,  
02/08/2018 19:18, Dry, 11.1, , 28, , , , , , , 0, 30, , None, None, ,  
02/08/2018 19:08, Dry, 11.3, , 28, , , , , , , 0, 31, , None, None, ,  
02/08/2018 19:06, Dry, 11.5, , 28, , , , , , , 0, 31, , None, None, ,  
02/08/2018 18:58, Dry, 11.7, , 28, , , , , , , 0, 31, , Yes, , ,  
02/08/2018 18:51, Dry, 11.7, , 28, , , , , , , 0, 31, , Yes, , ,  
02/08/2018 18:48, Dry, 11.7, , 28, , , , , , , 0, 31, , Yes, , ,  
02/08/2018 18:38, Dry, 11.8, , 28, , , , , , , 0, 30, , None, None, ,  
02/08/2018 18:36, Dry, 12, , 28, , , , , , , 0, 26, , None, None, ,  
02/08/2018 18:28, Dry, 12.2, , 28, , , , , , , 0, 26, , Yes, , ,  
02/08/2018 18:20, Dry, 12.6, , 28, , , , , , , 0, 26, , Yes, , ,  
02/08/2018 18:18, Dry, 12.7, , 28, , , , , , , 0, 26, , None, None, ,  
Change End Date:

Copyright © 1998-2015 Vaisala, Inc.
All Rights Reserved
Send comments about the data to:
SCAN Web ® is a registered trademark of Vaisala, Inc.
SCAN Web Version 6.0